#datint,netname,site,siteID,timestamp,IntT,BattV,AirT2,AirT,AirT_Avg,AirT_Max,AirT_Min,RH_Avg,RH_Max,RH_Min,EA_Avg,Td_Avg,Td_Max,Td_Min,WindS_Smp,WindS_Avg,WindD_Avg,WindD_SD,WindS_Max,ETo,ETr,SoilT4,SoilT8,SoilVWC8,SolarW_Avg,wetstate_Avg,wetT_Avg,Precip_accum,Precip_WPG,Precip_TB
15min,AgWx,beryljct,423,05OCT2019:00:00:00,44.7,12.96,43.4,43.7,44.0,44.3,43.7,44,49,39,0.383,23.6,26.0,20.6,1.951,2.6,69,7.0,6.4,0.00000,0.00003,56.6,58.6,8,0,.,.,17.19,0.00,0.00
15min,AgWx,beryljct,423,05OCT2019:00:15:00,43.8,12.96,43.6,43.6,43.4,44.0,42.8,39,40,37,0.363,19.9,20.9,19.3,2.543,2.3,73,13,5.0,-0.00002,0.00001,56.4,58.5,8,0,.,.,17.19,0.00,0.00
15min,AgWx,beryljct,423,05OCT2019:00:30:00,43.0,12.96,43.3,43.4,43.0,43.6,42.4,39,40,38,0.359,19.6,20.1,19.2,0.614,1.3,61,10,5.3,-0.00012,-0.00015,56.1,58.5,8,0,.,.,17.19,0.00,0.00
15min,AgWx,beryljct,423,05OCT2019:00:45:00,42.2,12.95,44.0,43.0,43.1,43.7,42.6,38,39,37,0.359,19.5,20.0,19.2,1.425,1.0,55,7.4,2.5,-0.00017,-0.00023,55.9,58.5,8,0,.,.,17.19,0.00,0.00
15min,AgWx,beryljct,423,05OCT2019:01:00:00,41.4,12.94,43.0,42.4,42.7,43.2,42.1,39,40,38,0.363,19.6,19.9,19.2,0,0.7,57,4.6,2.8,-0.00021,-0.00030,55.6,58.4,8,0,.,.,17.20,0.00,0.00
15min,AgWx,beryljct,423,05OCT2019:01:15:00,40.8,12.92,43.2,43.1,42.6,43.2,42.1,39,40,38,0.365,19.5,19.8,19.2,1.425,0.3,67,6.6,2.5,-0.00028,-0.00042,55.3,58.4,8,0,.,.,17.19,0.00,0.00
15min,AgWx,beryljct,423,05OCT2019:01:30:00,40.4,12.91,42.5,42.8,43.1,43.3,42.8,38,39,37,0.358,19.3,19.7,19.0,1.315,0.7,55,9.1,2.3,-0.00022,-0.00032,55.1,58.4,8,0,.,.,17.19,0.00,0.00
15min,AgWx,beryljct,423,05OCT2019:01:45:00,40.1,12.91,41.9,41.7,42.2,42.7,41.6,40,41,39,0.367,19.3,19.8,19.0,1.6,1.8,83,12,3.2,-0.00007,-0.00007,54.8,58.3,8,0,.,.,17.20,0.00,0.00
15min,AgWx,beryljct,423,05OCT2019:02:00:00,39.8,12.89,43.0,41.6,41.7,42.0,41.3,41,42,40,0.362,19.7,20.1,19.3,2.609,2.0,95,2.4,3.4,-0.00005,-0.00004,54.6,58.2,8,0,.,.,17.20,0.00,0.00
15min,AgWx,beryljct,423,05OCT2019:02:15:00,39.7,12.89,41.1,41.5,41.5,42.1,41.0,41,43,40,0.363,19.7,20.1,19.3,2.236,2.7,92,6.3,4.8,0.00002,0.00006,54.3,58.2,8,0,.,.,17.20,0.00,0.00
15min,AgWx,beryljct,423,05OCT2019:02:30:00,39.4,12.89,38.5,39.8,40.9,41.5,39.8,42,45,41,0.373,19.7,20.1,19.4,1.184,2.6,86,8.0,4.4,0.00001,0.00005,54.1,58.2,8,0,.,.,17.20,0.00,0.00
15min,AgWx,beryljct,423,05OCT2019:02:45:00,38.9,12.86,39.9,39.6,39.4,39.9,38.8,46,48,44,0.371,20.2,20.9,19.5,2.872,1.3,77,5.2,3.9,-0.00013,-0.00016,53.8,58.1,8,0,.,.,17.20,0.00,0.00
15min,AgWx,beryljct,423,05OCT2019:03:00:00,38.3,12.86,40.1,39.6,39.3,39.8,38.7,45,47,43,0.357,19.8,20.3,19.0,4.538,2.2,60,8.0,4.5,-0.00004,-0.00002,53.6,58.1,8,0,.,.,17.20,0.00,0.00
15min,AgWx,beryljct,423,05OCT2019:03:15:00,37.9,12.85,38.3,38.6,38.6,39.6,38.0,45,47,43,0.349,19.3,19.8,18.5,0.197,2.1,63,3.2,3.9,-0.00004,-0.00002,53.3,58.0,8,0,.,.,17.20,0.00,0.00
15min,AgWx,beryljct,423,05OCT2019:03:30:00,37.3,12.85,39.7,39.0,38.7,39.0,38.4,44,45,43,0.355,18.6,19.1,18.3,0,0.3,52,4.1,1.5,-0.00026,-0.00039,53.1,57.9,8,0,.,.,17.20,0.00,0.00
15min,AgWx,beryljct,423,05OCT2019:03:45:00,36.9,12.84,37.2,36.9,38.4,39.1,36.9,45,50,43,0.371,19.1,20.1,18.6,2.083,0.9,79,45,3.2,-0.00017,-0.00024,52.8,57.8,8,0,.,.,17.20,0.00,0.00
15min,AgWx,beryljct,423,05OCT2019:04:00:00,36.5,12.82,39.1,38.6,38.2,39.3,36.6,47,51,44,0.364,19.6,20.2,19.1,0.438,1.1,164,2.0,2.8,-0.00014,-0.00018,52.6,57.7,8,0,.,.,17.20,0.00,0.00
15min,AgWx,beryljct,423,05OCT2019:04:15:00,36.2,12.81,39.2,39.2,38.9,39.3,38.2,45,47,43,0.354,19.4,19.7,18.9,0,0.3,162,0.0,1.1,-0.00026,-0.00039,52.4,57.7,8,0,.,.,17.20,0.00,0.00
15min,AgWx,beryljct,423,05OCT2019:04:30:00,35.9,12.79,39.5,39.0,39.3,39.6,38.8,43,44,43,0.348,18.9,19.1,18.5,0.745,0.3,162,0.0,1.4,-0.00027,-0.00040,52.2,57.6,8,0,.,.,17.20,0.00,0.00
15min,AgWx,beryljct,423,05OCT2019:04:45:00,35.8,12.79,37.1,38.6,38.9,39.2,38.6,43,45,43,0.342,18.5,19.1,18.1,1.863,1.4,168,5.6,2.1,-0.00012,-0.00014,51.9,57.5,8,0,.,.,17.20,0.00,0.00
15min,AgWx,beryljct,423,05OCT2019:05:00:00,35.7,12.79,37.6,36.3,37.9,38.4,36.0,44,47,42,0.337,17.7,18.2,17.2,2.543,2.5,305,73,3.3,-0.00000,0.00002,51.7,57.4,8,0,.,.,17.20,0.00,0.00
15min,AgWx,beryljct,423,05OCT2019:05:15:00,35.5,12.78,37.4,36.4,36.5,37.2,35.9,45,46,44,0.331,17.3,17.8,17.1,2.981,2.6,341,7.0,3.4,-0.00000,0.00002,51.5,57.3,8,0,.,.,17.21,0.00,0.00
15min,AgWx,beryljct,423,05OCT2019:05:30:00,35.2,12.77,35.5,35.7,36.1,36.6,35.6,45,46,45,0.322,17.0,17.4,16.6,2.784,2.7,345,5.7,3.4,0.00001,0.00003,51.3,57.3,8,0,.,.,17.20,0.00,0.00
15min,AgWx,beryljct,423,05OCT2019:05:45:00,34.8,12.77,32.5,33.0,34.7,35.7,33.0,47,50,45,0.321,16.6,17.0,16.2,2.872,3.4,336,8.3,4.1,0.00004,0.00008,51.1,57.2,8,0,.,.,17.20,0.00,0.00
15min,AgWx,beryljct,423,05OCT2019:06:00:00,33.9,12.76,33.9,32.2,31.1,32.9,29.6,52,54,50,0.319,15.4,17.0,13.1,2.894,2.5,323,4.3,3.7,-0.00003,-0.00001,50.9,57.1,8,0,.,.,17.20,0.00,0.00
15min,AgWx,beryljct,423,05OCT2019:06:15:00,33.1,12.76,33.2,32.8,33.3,34.6,31.6,50,53,47,0.307,16.5,17.1,15.4,3.31,3.5,315,15,4.6,0.00004,0.00007,50.7,57.0,8,0,.,.,17.21,0.00,0.00
15min,AgWx,beryljct,423,05OCT2019:06:30:00,32.5,12.73,33.4,31.4,31.1,33.1,29.9,54,58,49,0.318,16.4,17.2,15.6,3.508,3.0,332,7.5,4.0,-0.00001,0.00001,50.6,56.9,8,0,.,.,17.20,0.00,0.00
15min,AgWx,beryljct,423,05OCT2019:06:45:00,32.0,12.75,32.3,31.9,31.9,32.8,31.2,52,53,50,0.308,16.1,16.4,15.7,4.582,3.8,318,0.9,4.6,0.00004,0.00007,50.4,56.8,8,0,.,.,17.21,0.00,0.00
15min,AgWx,beryljct,423,05OCT2019:07:00:00,31.6,12.74,30.7,30.9,31.4,32.8,30.4,52,54,49,0.316,15.9,16.3,15.3,3.025,3.9,321,8.0,4.8,0.00029,0.00051,50.2,56.7,8,0,.,.,17.20,0.00,0.00
15min,AgWx,beryljct,423,05OCT2019:07:15:00,31.3,12.73,33.1,33.1,32.2,33.5,30.8,53,56,49,0.319,16.8,17.7,16.3,4.165,3.9,307,6.0,4.8,0.00029,0.00050,50.0,56.6,8,0,.,.,17.20,0.00,0.00
15min,AgWx,beryljct,423,05OCT2019:07:30:00,31.4,12.72,33.1,32.6,32.8,33.5,32.1,51,54,49,0.325,16.7,17.1,16.2,3.223,4.2,309,4.7,5.0,0.00033,0.00057,49.9,56.6,8,2,.,.,17.21,0.01,0.00
15min,AgWx,beryljct,423,05OCT2019:07:45:00,31.3,12.75,32.6,32.5,31.9,32.7,31.3,53,54,51,0.325,16.8,17.2,16.3,3.266,3.7,314,5.0,4.9,0.00030,0.00051,49.7,56.5,8,9,.,.,17.20,0.00,0.00
15min,AgWx,beryljct,423,05OCT2019:08:00:00,31.5,12.82,32.9,32.9,32.9,33.6,32.4,51,53,48,0.333,16.7,17.5,16.0,2.148,3.1,312,4.0,4.3,0.00044,0.00064,49.5,56.4,8,48,.,.,17.20,0.00,0.00
15min,AgWx,beryljct,423,05OCT2019:08:15:00,32.3,12.94,33.7,34.3,33.5,34.9,32.4,52,55,48,0.341,18.0,18.6,17.3,3.551,2.9,320,7.1,4.6,0.00053,0.00072,49.4,56.3,8,87,.,.,17.20,0.00,0.00
15min,AgWx,beryljct,423,05OCT2019:08:30:00,34.0,13.17,36.2,36.0,35.6,36.2,34.2,48,52,46,0.374,18.1,20.2,17.2,2.653,3.0,341,18,4.9,0.00071,0.00094,49.2,56.2,8,129,.,.,17.20,0.00,0.00
15min,AgWx,beryljct,423,05OCT2019:08:45:00,36.2,13.56,38.2,38.0,37.1,38.0,35.9,48,52,44,0.342,19.0,20.7,18.1,2.258,2.1,344,21,3.2,0.00083,0.00102,49.0,56.1,8,174,.,.,17.20,0.00,0.00
15min,AgWx,beryljct,423,05OCT2019:09:00:00,38.5,14.53,39.1,38.9,38.5,39.0,38.0,44,48,43,0.385,18.6,20.9,17.8,2.696,2.7,6.7,14,3.8,0.00108,0.00135,48.9,56.0,8,222,.,.,17.20,0.00,0.00
15min,AgWx,beryljct,423,05OCT2019:09:15:00,40.8,14.59,41.2,40.8,39.9,40.8,38.9,42,48,41,0.352,18.8,20.7,18.3,2.039,3.2,0.9,13,6.0,0.00133,0.00166,48.8,55.9,8,271,.,.,17.20,0.00,0.00
15min,AgWx,beryljct,423,05OCT2019:09:30:00,43.1,14.55,42.4,41.9,41.6,42.0,40.9,41,43,40,0.368,19.7,20.7,18.8,4.121,3.8,14,13,6.2,0.00161,0.00201,48.7,55.8,8,320,.,.,17.20,0.00,0.00
15min,AgWx,beryljct,423,05OCT2019:09:45:00,44.9,14.52,42.6,42.9,42.2,42.9,41.7,40,41,39,0.378,19.5,20.4,18.9,4.165,4.9,10,13,7.5,0.00188,0.00237,48.7,55.7,8,369,.,.,17.20,0.00,0.00
15min,AgWx,beryljct,423,05OCT2019:10:00:00,46.8,14.58,45.3,44.6,43.7,44.6,42.8,40,42,38,0.407,20.9,22.2,20.2,7.234,4.2,13,21,9.8,0.00209,0.00256,48.7,55.7,8,417,.,.,17.19,0.00,0.00
15min,AgWx,beryljct,423,05OCT2019:10:15:00,48.7,14.44,47.2,45.7,45.3,45.8,44.6,40,42,37,0.385,22.4,24.0,20.7,6.577,5.5,34,17,8.6,0.00239,0.00299,48.8,55.5,8,463,.,.,17.19,0.00,0.00
15min,AgWx,beryljct,423,05OCT2019:10:30:00,50.4,14.44,47.2,46.8,46.5,47.2,45.7,40,45,37,0.414,23.5,26.8,21.1,4.582,4.7,32,17,7.4,0.00260,0.00317,48.8,55.5,8,506,.,.,17.19,0.00,0.00
15min,AgWx,beryljct,423,05OCT2019:10:45:00,52.2,14.42,48.0,48.1,47.6,48.2,46.8,43,51,36,0.553,26.2,30.8,21.0,5.546,4.2,50,20,8.2,0.00280,0.00333,49.0,55.4,8,549,.,.,17.19,0.00,0.00
15min,AgWx,beryljct,423,05OCT2019:11:00:00,53.7,14.38,48.1,48.2,48.3,48.7,47.8,46,54,38,0.524,28.2,32.5,23.6,6.642,5.0,51,23,9.3,0.00299,0.00358,49.2,55.3,8,587,.,.,17.18,0.00,0.00
15min,AgWx,beryljct,423,05OCT2019:11:15:00,54.6,14.02,49.7,49.8,49.1,49.9,48.2,41,49,34,0.480,26.2,30.7,22.0,6.489,5.8,45,24,8.9,0.00325,0.00395,49.4,55.2,8,623,.,.,17.18,0.00,0.00
15min,AgWx,beryljct,423,05OCT2019:11:30:00,55.2,13.97,49.7,50.6,50.4,51.3,49.8,37,43,32,0.429,25.3,28.7,21.9,4.056,6.5,37,19,10.7,0.00352,0.00433,49.7,55.2,8,654,.,.,17.18,0.00,0.00
15min,AgWx,beryljct,423,05OCT2019:11:45:00,56.0,13.96,51.5,51.7,51.2,51.7,50.5,35,40,30,0.423,24.3,28.3,21.1,7.322,6.0,31,26,10.0,0.00370,0.00451,50.1,55.1,8,682,.,.,17.18,0.00,0.00
15min,AgWx,beryljct,423,05OCT2019:12:00:00,56.8,13.94,53.3,53.2,52.6,53.5,51.6,32,37,29,0.408,23.6,28.0,21.5,4.45,5.7,16,28,11.1,0.00392,0.00477,50.6,55.0,8,707,.,.,17.18,0.00,0.00
15min,AgWx,beryljct,423,05OCT2019:12:15:00,58.0,13.9,54.1,54.8,53.7,55.0,52.9,30,37,28,0.420,23.1,28.0,20.9,6.248,6.1,9.7,18,11.1,0.00411,0.00503,51.1,55.0,8,728,.,.,17.18,0.00,0.00
15min,AgWx,beryljct,423,05OCT2019:12:30:00,59.2,13.86,55.5,54.6,54.4,55.0,53.7,30,35,27,0.433,23.5,27.5,20.7,4.494,4.8,35,30,9.1,0.00420,0.00502,51.6,54.9,8,747,.,.,17.18,0.00,0.00
15min,AgWx,beryljct,423,05OCT2019:12:45:00,60.4,13.9,55.3,55.8,55.3,56.1,54.6,28,33,26,0.395,22.6,27.2,20.5,3.332,4.4,1.0,29,9.1,0.00431,0.00512,52.2,54.9,8,760,.,.,17.17,0.00,0.00
15min,AgWx,beryljct,423,05OCT2019:13:00:00,61.5,13.88,55.5,55.6,56.0,56.9,55.6,28,33,25,0.376,23.3,28.3,20.2,3.376,3.9,42,52,10.8,0.00437,0.00513,52.7,54.9,8,772,.,.,17.17,0.00,0.00
15min,AgWx,beryljct,423,05OCT2019:13:15:00,62.4,13.84,56.3,57.1,56.9,57.8,55.6,26,29,24,0.446,22.3,25.4,20.0,3.069,2.7,44,80,6.3,0.00441,0.00507,53.3,54.9,8,778,.,.,17.17,0.00,0.00
15min,AgWx,beryljct,423,05OCT2019:13:30:00,63.5,13.83,57.4,58.6,57.9,58.7,57.1,26,31,24,0.441,23.6,27.9,20.8,2.916,2.2,74,36,6.7,0.00445,0.00505,53.9,54.9,8,781,.,.,17.17,0.00,0.00
15min,AgWx,beryljct,423,05OCT2019:13:45:00,64.7,13.78,59.0,59.0,58.8,59.6,58.0,26,31,23,0.394,23.8,28.4,20.6,4.428,3.4,40,27,8.2,0.00456,0.00531,54.5,54.9,8,778,.,.,17.17,0.00,0.00
15min,AgWx,beryljct,423,05OCT2019:14:00:00,65.7,13.76,59.5,59.8,59.5,60.8,58.7,22,24,21,0.390,20.8,22.9,19.6,4.034,3.1,328,25,4.8,0.00456,0.00531,55.1,55.0,8,773,.,.,17.16,0.00,0.00
15min,AgWx,beryljct,423,05OCT2019:14:15:00,66.9,13.82,61.3,61.4,60.5,61.4,59.6,22,28,20,0.450,21.9,27.6,19.5,0,1.5,257,75,4.7,0.00442,0.00496,55.7,55.0,8,762,.,.,17.16,0.00,0.00
15min,AgWx,beryljct,423,05OCT2019:14:30:00,68.4,13.67,62.2,62.7,62.3,63.7,61.2,21,24,18,0.363,21.9,25.3,19.3,1.973,0.6,342,54,3.0,0.00430,0.00469,56.4,55.1,8,747,.,.,17.16,0.00,0.00
15min,AgWx,beryljct,423,05OCT2019:14:45:00,69.9,13.63,62.3,61.9,62.5,63.6,61.9,21,26,18,0.430,21.7,27.0,18.5,3.091,1.8,87,81,4.2,0.00433,0.00491,57.0,55.2,8,731,.,.,17.16,0.00,0.00
15min,AgWx,beryljct,423,05OCT2019:15:00:00,70.9,13.61,65.1,64.8,63.1,64.9,61.9,22,24,19,0.440,23.1,25.8,21.0,0,1.6,75,40,4.0,0.00419,0.00473,57.6,55.2,8,708,.,.,17.15,0.00,0.00
15min,AgWx,beryljct,423,05OCT2019:15:15:00,72.1,13.6,65.3,65.1,64.4,65.3,63.7,19,24,16,0.405,21.3,27.0,17.1,1.578,1.3,337,30,4.8,0.00404,0.00453,58.2,55.3,8,683,.,.,17.16,0.00,0.00
15min,AgWx,beryljct,423,05OCT2019:15:30:00,73.2,13.58,65.4,66.8,65.9,67.0,64.8,19,24,15,0.365,21.9,28.8,17.5,0.351,0.7,39,55,4.4,0.00365,0.00403,58.7,55.4,8,631,.,.,17.15,0.00,0.00
15min,AgWx,beryljct,423,05OCT2019:15:45:00,74.3,13.53,66.0,66.2,66.1,66.7,65.7,19,22,16,0.476,22.1,26.5,18.0,3.749,2.4,62,58,5.4,0.00377,0.00444,59.3,55.6,8,612,.,.,17.15,0.00,0.00
15min,AgWx,beryljct,423,05OCT2019:16:00:00,74.8,13.5,67.1,67.3,67.0,68.5,66.1,18,23,14,0.380,21.7,27.6,16.3,4.735,1.9,84,8.9,5.7,0.00355,0.00413,59.8,55.7,8,584,.,.,17.16,0.00,0.00
15min,AgWx,beryljct,423,05OCT2019:16:15:00,75.1,13.52,67.9,67.8,67.4,67.8,67.1,17,24,14,0.384,21.6,29.8,17.2,1.074,2.6,87,7.4,4.5,0.00333,0.00401,60.3,55.8,8,533,.,.,17.15,0.00,0.00
15min,AgWx,beryljct,423,05OCT2019:16:30:00,75.6,13.49,68.2,69.0,68.4,69.2,67.9,16,21,13,0.364,20.4,27.3,16.1,0.066,0.7,86,4.1,2.7,0.00280,0.00313,60.7,56.0,8,504,.,.,17.15,0.00,0.00
15min,AgWx,beryljct,423,05OCT2019:16:45:00,76.6,13.45,68.3,68.9,69.0,69.4,68.7,15,23,13,0.461,19.5,29.7,15.5,2.674,1.0,58,16,3.4,0.00255,0.00290,61.1,56.1,8,461,.,.,17.16,0.00,0.00
15min,AgWx,beryljct,423,05OCT2019:17:00:00,77.0,13.46,68.8,68.9,68.8,68.9,68.6,17,24,14,0.360,22.7,30.1,17.4,0.548,0.9,54,3.2,2.5,0.00224,0.00257,61.5,56.3,8,415,.,.,17.15,0.00,0.00
15min,AgWx,beryljct,423,05OCT2019:17:15:00,76.9,13.44,68.9,69.0,68.8,69.0,68.6,18,22,15,0.425,23.4,28.4,19.9,0.044,1.1,58,1.1,2.2,0.00194,0.00227,61.7,56.4,8,369,.,.,17.15,0.00,0.00
15min,AgWx,beryljct,423,05OCT2019:17:30:00,76.3,13.47,68.1,68.2,68.7,69.1,68.1,21,33,16,0.600,27.3,38.1,20.8,4.297,3.4,103,30,5.5,0.00209,0.00279,62.0,56.6,8,323,.,.,17.16,0.00,0.00
15min,AgWx,beryljct,423,05OCT2019:17:45:00,75.0,13.51,67.2,67.3,68.0,68.9,66.7,25,35,17,0.632,30.3,38.2,22.1,2.74,3.9,139,15,6.0,0.00186,0.00260,62.2,56.8,8,275,.,.,17.16,0.00,0.00
15min,AgWx,beryljct,423,05OCT2019:18:00:00,73.3,13.53,68.2,68.0,67.8,68.8,67.1,22,31,15,0.458,27.5,35.8,19.1,5.919,4.9,143,15,6.6,0.00173,0.00261,62.4,56.9,8,228,.,.,17.16,0.00,0.00
15min,AgWx,beryljct,423,05OCT2019:18:15:00,71.7,13.58,66.3,66.3,67.2,68.4,66.2,20,26,14,0.412,25.0,30.5,17.4,10.26,6.1,141,7.7,12.5,0.00106,0.00143,62.4,57.0,8,181,.,.,17.16,0.00,0.00
15min,AgWx,beryljct,423,05OCT2019:18:30:00,70.1,13.63,68.8,68.5,67.4,68.5,66.0,16,21,11,0.316,18.8,25.1,12.1,3.661,5.0,148,20,13.2,0.00090,0.00125,62.4,57.2,8,135,.,.,17.16,0.00,0.00
15min,AgWx,beryljct,423,05OCT2019:18:45:00,68.8,13.68,67.1,67.4,68.1,68.6,67.4,12,17,10,0.272,13.8,21.9,10.4,7.936,6.7,175,7.9,11.7,0.00101,0.00137,62.4,57.3,8,93,.,.,17.17,0.01,0.00
15min,AgWx,beryljct,423,05OCT2019:19:00:00,67.2,13.24,63.3,63.7,65.8,67.4,63.7,13,15,12,0.288,13.5,15.8,11.6,5.108,5.9,178,7.1,8.8,0.00076,0.00105,62.2,57.5,8,39,.,.,17.17,0.00,0.00
15min,AgWx,beryljct,423,05OCT2019:19:15:00,64.7,13.17,59.9,60.8,62.4,63.7,60.8,13,15,12,0.252,11.7,14.4,9.5,4.231,4.5,179,3.8,5.9,0.00047,0.00069,62.0,57.7,8,9,.,.,17.17,0.00,0.00
15min,AgWx,beryljct,423,05OCT2019:19:30:00,62.0,13.14,60.4,60.3,60.2,60.9,59.4,14,17,12,0.216,10.6,15.2,7.7,4.713,5.5,179,4.6,6.3,0.00054,0.00076,61.8,57.8,8,2,.,.,17.17,0.01,0.00
15min,AgWx,beryljct,423,05OCT2019:19:45:00,59.9,13.11,57.0,56.8,58.9,60.4,56.7,14,17,12,0.252,9.3,11.8,7.5,5.393,5.6,183,6.0,6.5,0.00053,0.00075,61.4,57.9,8,0,.,.,17.17,0.00,0.00
15min,AgWx,beryljct,423,05OCT2019:20:00:00,58.1,13.1,58.3,58.4,57.7,58.4,56.8,16,18,15,0.297,12.1,14.9,9.4,5.612,6.2,191,8.2,8.1,0.00056,0.00077,61.1,58.1,8,0,.,.,17.17,0.00,0.00
15min,AgWx,beryljct,423,05OCT2019:20:15:00,57.7,13.07,58.6,57.8,59.2,61.4,56.3,16,19,14,0.234,13.4,16.1,9.5,7.936,7.0,190,17,11.6,0.00065,0.00087,60.7,58.2,8,0,.,.,17.17,0.00,0.00
15min,AgWx,beryljct,423,05OCT2019:20:30:00,57.1,13.08,58.2,57.6,57.9,58.6,57.4,14,16,13,0.237,9.0,11.9,7.6,7.015,6.9,168,5.5,8.9,0.00064,0.00086,60.3,58.3,8,0,.,.,17.17,0.00,0.00
15min,AgWx,beryljct,423,05OCT2019:20:45:00,56.2,13.07,55.1,55.6,56.4,57.6,55.3,16,19,14,0.254,11.2,14.3,9.3,6.993,6.0,173,6.5,7.8,0.00053,0.00073,59.9,58.4,8,0,.,.,17.17,0.00,0.00
15min,AgWx,beryljct,423,05OCT2019:21:00:00,55.3,13.05,54.8,55.2,55.4,55.8,54.9,18,20,16,0.296,12.1,14.8,10.4,6.642,6.7,180,7.7,8.8,0.00056,0.00075,59.5,58.4,8,0,.,.,17.17,0.00,0.00
15min,AgWx,beryljct,423,05OCT2019:21:15:00,54.6,13.05,55.6,54.3,54.9,55.6,54.2,19,21,18,0.308,13.4,15.6,11.8,5.7,7.0,185,6.4,8.6,0.00057,0.00075,59.1,58.5,8,0,.,.,17.17,0.00,0.00
15min,AgWx,beryljct,423,05OCT2019:21:30:00,53.9,13.03,49.4,50.2,52.5,57.9,49.0,22,25,19,0.287,14.6,16.5,12.6,5.941,5.1,184,21,10.3,0.00037,0.00053,58.7,58.5,8,0,.,.,17.17,0.00,0.00
15min,AgWx,beryljct,423,05OCT2019:21:45:00,52.7,13.03,54.1,53.1,51.6,53.1,50.0,21,24,19,0.257,12.6,14.3,11.2,8.15,6.7,167,7.3,8.6,0.00049,0.00065,58.3,58.5,8,0,.,.,17.18,0.00,0.00
15min,AgWx,beryljct,423,05OCT2019:22:00:00,52.0,13.02,50.2,51.1,52.1,53.5,50.9,21,23,18,0.288,12.9,14.1,11.1,4.582,5.0,173,11,8.2,0.00036,0.00052,57.9,58.6,8,0,.,.,17.18,0.00,0.00
15min,AgWx,beryljct,423,05OCT2019:22:15:00,51.1,13.02,51.9,51.1,50.6,51.1,49.7,22,26,20,0.253,13.5,16.7,11.2,3.968,2.8,153,46,5.7,0.00011,0.00019,57.5,58.6,8,0,.,.,17.18,0.00,0.00
15min,AgWx,beryljct,423,05OCT2019:22:30:00,50.3,13.01,51.5,49.9,50.0,51.7,47.5,24,29,19,0.281,14.2,17.4,10.9,1.841,3.7,88,34,5.3,0.00021,0.00033,57.1,58.6,8,0,.,.,17.18,0.00,0.00
15min,AgWx,beryljct,423,05OCT2019:22:45:00,49.6,13,51.3,51.5,51.8,52.4,50.1,19,22,18,0.238,10.5,13.2,9.5,0,1.1,85,0.2,3.2,-0.00017,-0.00022,56.8,58.6,8,0,.,.,17.18,0.00,0.00
15min,AgWx,beryljct,423,05OCT2019:23:00:00,48.3,12.99,45.4,45.1,45.9,51.5,43.6,33,42,19,0.309,17.9,22.0,10.5,3.902,1.6,313,61,4.1,-0.00008,-0.00008,56.4,58.6,8,0,.,.,17.18,0.00,0.00
15min,AgWx,beryljct,423,05OCT2019:23:15:00,46.9,12.99,45.0,45.6,45.0,45.9,44.3,31,37,25,0.283,16.2,19.4,11.8,2.828,3.8,295,0.4,4.5,0.00016,0.00025,56.1,58.5,8,0,.,.,17.18,0.00,0.00
15min,AgWx,beryljct,423,05OCT2019:23:30:00,45.6,12.97,41.3,44.8,44.6,45.7,43.4,30,37,26,0.302,14.7,19.0,12.2,1.578,0.4,295,0.0,2.5,-0.00027,-0.00040,55.7,58.5,8,0,.,.,17.18,0.00,0.00
15min,AgWx,beryljct,423,05OCT2019:23:45:00,44.2,12.96,40.2,39.8,40.4,44.4,38.2,45,50,32,0.351,20.4,23.4,16.6,0.46,1.8,7.1,45,4.8,-0.00008,-0.00008,55.4,58.5,8,0,.,.,17.18,0.00,0.00
15min,AgWx,beryljct,423,06OCT2019:00:00:00,43.0,12.95,43.0,43.3,41.7,43.6,39.8,38,44,33,0.322,17.9,20.0,15.9,0.438,0.3,62,21,2.5,-0.00027,-0.00041,55.1,58.4,8,0,.,.,17.18,0.00,0.00
15min,AgWx,beryljct,423,06OCT2019:00:15:00,42.4,12.94,45.0,45.1,44.0,45.2,43.3,32,34,31,0.317,16.2,16.8,15.5,1.206,0.4,39,36,2.4,-0.00028,-0.00041,54.8,58.4,8,0,.,.,17.18,0.00,0.00
15min,AgWx,beryljct,423,06OCT2019:00:30:00,42.4,12.94,46.8,46.9,45.6,47.0,44.5,32,33,31,0.341,17.4,18.1,16.3,3.924,0.6,51,32,3.9,-0.00025,-0.00037,54.5,58.3,8,0,.,.,17.18,0.00,0.00
15min,AgWx,beryljct,423,06OCT2019:00:45:00,42.8,12.92,47.4,46.7,46.2,46.8,45.4,34,36,32,0.351,19.1,20.1,18.2,2.061,2.6,345,24,4.3,0.00004,0.00010,54.2,58.3,8,0,.,.,17.18,0.00,0.00
15min,AgWx,bigpiney,439,05OCT2019:00:00:00,31.2,12.63,32.0,29.6,28.0,29.6,27.4,76,77,74,0.411,21.5,22.4,20.9,7.497,6.3,249,8.2,8.6,0.00000,0.00002,42.4,43.8,42,0,0,0.0,5.47,0.00,0.00
15min,AgWx,bigpiney,439,05OCT2019:00:15:00,30.8,12.63,29.1,28.7,29.3,30.4,28.7,72,74,70,0.382,21.4,22.4,20.7,8.11,6.6,245,13,8.4,0.00003,0.00005,42.4,43.8,42,0,0,0.0,5.47,0.00,0.00
15min,AgWx,bigpiney,439,05OCT2019:00:30:00,30.6,12.62,30.3,31.1,29.8,31.4,28.4,70,74,66,0.388,21.4,22.2,20.7,2.433,6.0,264,20,9.2,0.00003,0.00004,42.4,43.9,42,0,0,0.0,5.47,0.00,0.00
15min,AgWx,bigpiney,439,05OCT2019:00:45:00,30.5,12.62,31.5,30.7,30.8,31.4,29.6,68,71,65,0.406,21.5,22.2,20.3,8.05,5.5,280,16,10.3,0.00002,0.00004,42.4,43.8,42,0,0,0.0,5.47,0.00,0.00
15min,AgWx,bigpiney,439,05OCT2019:01:00:00,30.6,12.61,26.6,28.0,30.6,31.6,28.0,69,73,67,0.379,21.6,22.4,20.1,6.971,7.4,321,33,11.8,0.00006,0.00008,42.3,43.8,42,0,0,0.0,5.47,0.00,0.00
15min,AgWx,bigpiney,439,05OCT2019:01:15:00,30.4,12.59,26.4,26.1,26.8,28.1,25.9,77,80,73,0.374,20.5,21.9,19.0,0,2.7,35,34,7.4,-0.00008,-0.00009,42.3,43.9,42,0,0,0.0,5.47,0.00,0.00
15min,AgWx,bigpiney,439,05OCT2019:01:30:00,29.7,12.58,23.9,24.4,26.2,26.9,24.4,78,79,75,0.337,20.4,21.1,17.8,1.513,2.1,130,17,3.7,-0.00011,-0.00013,42.2,43.9,42,0,0,0.0,5.47,0.00,0.00
15min,AgWx,bigpiney,439,05OCT2019:01:45:00,28.8,12.58,26.4,25.6,24.7,27.1,22.8,81,87,74,0.354,19.6,22.2,17.9,6.927,2.8,249,78,6.9,-0.00008,-0.00009,42.2,43.8,42,0,0,0.0,5.47,0.00,0.00
15min,AgWx,bigpiney,439,05OCT2019:02:00:00,28.2,12.57,27.8,27.1,27.3,28.5,25.6,75,78,73,0.388,20.5,21.6,19.0,5.217,6.2,296,15,10.0,0.00001,0.00002,42.2,43.9,42,0,0,0.0,5.47,0.00,0.00
15min,AgWx,bigpiney,439,05OCT2019:02:15:00,27.9,12.57,28.7,27.7,26.4,27.7,24.5,78,82,75,0.392,20.4,21.4,18.1,2.346,3.4,203,48,5.4,-0.00006,-0.00006,42.2,43.9,42,0,0,0.0,5.47,0.00,0.00
15min,AgWx,bigpiney,439,05OCT2019:02:30:00,27.7,12.56,26.0,26.2,26.7,28.4,24.7,75,79,72,0.367,19.9,21.3,18.0,2.28,2.9,125,19,4.4,-0.00007,-0.00007,42.1,43.8,42,0,0,0.0,5.47,0.00,0.00
15min,AgWx,bigpiney,439,05OCT2019:02:45:00,27.5,12.55,25.8,30.2,28.9,30.6,25.9,72,78,67,0.390,21.1,22.4,19.3,3.573,3.0,106,28,4.9,-0.00006,-0.00007,42.1,43.9,42,0,0,0.0,5.47,0.00,0.00
15min,AgWx,bigpiney,439,05OCT2019:03:00:00,27.5,12.55,25.9,28.3,28.3,30.0,26.3,71,75,66,0.354,20.0,21.7,17.8,3.749,3.7,249,31,7.7,-0.00003,-0.00003,42.0,43.9,42,0,0,0.0,5.47,0.00,0.00
15min,AgWx,bigpiney,439,05OCT2019:03:15:00,27.4,12.52,26.7,26.7,27.4,28.2,26.7,72,75,68,0.366,19.7,20.5,18.1,0.592,3.3,336,27,5.2,-0.00005,-0.00005,42.0,43.9,42,0,0,0.0,5.47,0.00,0.00
15min,AgWx,bigpiney,439,05OCT2019:03:30:00,27.1,12.52,24.4,24.0,26.2,27.4,24.0,75,77,73,0.337,19.3,20.5,17.4,6.818,2.7,91,37,7.1,-0.00008,-0.00009,42.0,43.9,42,0,0,0.0,5.47,0.00,0.00
15min,AgWx,bigpiney,439,05OCT2019:03:45:00,26.6,12.5,24.9,23.4,23.3,24.9,22.2,79,82,76,0.347,17.7,19.7,16.1,2.565,4.5,154,36,8.5,-0.00003,-0.00003,41.9,43.8,42,0,0,0.0,5.47,0.00,0.00
15min,AgWx,bigpiney,439,05OCT2019:04:00:00,26.2,12.5,29.2,27.8,27.0,29.1,23.5,75,83,69,0.386,20.1,21.9,18.0,0.329,1.6,67,72,4.0,-0.00012,-0.00015,41.9,43.8,42,0,0,0.0,5.47,0.00,0.00
15min,AgWx,bigpiney,439,05OCT2019:04:15:00,25.9,12.49,28.1,27.5,27.6,28.9,26.5,73,75,68,0.378,20.1,21.0,18.1,1.622,2.4,312,37,4.5,-0.00008,-0.00010,41.9,43.8,42,0,0,0.0,5.47,0.00,0.00
15min,AgWx,bigpiney,439,05OCT2019:04:30:00,25.8,12.48,28.5,26.5,26.2,28.1,24.8,75,76,72,0.372,19.2,20.9,17.5,2.105,1.0,171,58,3.2,-0.00015,-0.00021,41.8,43.8,42,0,0,0.0,5.47,0.00,0.00
15min,AgWx,bigpiney,439,05OCT2019:04:45:00,25.5,12.47,19.8,22.2,25.5,27.0,22.2,76,79,71,0.296,18.9,20.5,14.8,3.508,1.9,212,55,5.0,-0.00011,-0.00013,41.8,43.8,42,0,0,0.0,5.47,0.00,0.00
15min,AgWx,bigpiney,439,05OCT2019:05:00:00,25.3,12.47,24.0,24.3,25.6,27.2,21.8,77,83,73,0.349,19.5,21.1,14.4,5.217,5.1,241,19,6.6,-0.00002,-0.00001,41.7,43.8,42,0,0,0.0,5.47,0.00,0.00
15min,AgWx,bigpiney,439,05OCT2019:05:15:00,25.3,12.44,26.3,25.9,25.7,26.6,24.3,80,81,78,0.381,20.3,21.2,18.7,4.428,5.6,274,6.2,7.8,-0.00002,-0.00001,41.7,43.8,42,0,0,0.0,5.47,0.00,0.00
15min,AgWx,bigpiney,439,05OCT2019:05:30:00,25.5,12.44,25.6,25.4,25.8,26.2,25.2,80,81,79,0.375,20.4,20.9,19.7,4.735,4.7,270,7.6,5.9,-0.00004,-0.00003,41.7,43.7,42,0,0,0.0,5.47,0.00,0.00
15min,AgWx,bigpiney,439,05OCT2019:05:45:00,25.6,12.42,24.2,24.3,25.3,25.7,24.3,81,82,80,0.362,20.2,20.7,19.2,3.376,4.6,281,8.9,5.7,-0.00004,-0.00004,41.6,43.8,42,0,0,0.0,5.47,0.00,0.00
15min,AgWx,bigpiney,439,05OCT2019:06:00:00,25.5,12.4,21.7,20.5,22.4,24.3,19.6,82,85,80,0.321,17.8,19.4,14.9,5.678,4.2,249,17,5.7,-0.00005,-0.00005,41.6,43.8,42,0,0,0.0,5.47,0.00,0.00
15min,AgWx,bigpiney,439,05OCT2019:06:15:00,24.8,12.39,19.9,20.1,20.7,21.8,20.0,84,86,83,0.318,16.7,18.0,16.0,4.669,6.0,236,4.6,7.0,-0.00003,-0.00002,41.5,43.8,42,0,0,0.0,5.47,0.00,0.00
15min,AgWx,bigpiney,439,05OCT2019:06:30:00,24.1,12.36,20.8,19.8,19.4,20.2,18.7,86,87,84,0.322,15.7,16.7,15.0,4.932,4.9,239,4.2,6.1,-0.00004,-0.00004,41.5,43.8,42,0,0,0.0,5.47,0.00,0.00
15min,AgWx,bigpiney,439,05OCT2019:06:45:00,23.5,12.37,23.8,22.4,20.9,23.1,18.7,87,89,83,0.347,17.5,19.8,14.5,2.105,2.3,280,82,5.7,-0.00010,-0.00012,41.4,43.8,42,0,0,0.0,5.47,0.00,0.00
15min,AgWx,bigpiney,439,05OCT2019:07:00:00,23.1,12.35,22.0,22.1,22.9,23.5,22.1,84,85,83,0.338,18.8,19.6,17.8,4.691,2.6,223,15,4.7,-0.00009,-0.00011,41.4,43.8,42,0,0,0.0,5.47,0.00,0.00